CAPE
0 0 0 0 0 0 0 0 0 0 0 0 0 2 72 288 428 409 380 344 118 10 3 2 10 6 21 55 13 6 19 27
0 0 0 0 0 0 0 0 0 1 0 0 3 8 0 0 366 457 396 429 235 70 3 3 2 10 14 14 37 15 6 10
0 0 0 0 0 0 0 0 0 1 2 2 3 3 2 5 0 551 444 383 360 207 9 3 4 6 11 18 44 2 2 0
0 0 0 0 0 0 0 0 0 1 1 2 1 1 1 3 3 174 488 470 353 302 167 3 3 3 4 8 30 3 2 2
0 0 0 0 0 0 0 0 0 0 1 3 3 5 6 5 5 4 5 469 418 315 175 20 3 3 3 1 7 4 1 1
0 0 0 0 0 0 0 0 0 0 1 4 2 4 2 2 4 4 4 505 418 318 143 61 1 3 3 3 3 2 5 2
0 0 0 0 0 0 0 0 0 0 1 1 4 2 4 4 6 7 6 10 420 297 155 9 6 2 31 4 4 4 5 4
0 0 0 0 0 0 0 0 0 0 0 1 2 2 2 3 4 5 4 7 18 246 107 68 4 2 3 4 17 11 5 5
0 0 0 0 0 0 0 0 0 0 0 2 2 5 2 2 2 2 2 3 4 1 171 59 17 4 19 18 6 18 16 5
0 0 0 0 0 0 0 0 0 0 0 1 2 5 4 3 1 3 2 3 2 3 0 143 14 2 27 10 7 2 13 32
0 0 0 0 0 0 0 0 0 0 0 0 1 3 7 4 1 4 1 2 2 4 2 127 124 9 8 31 13 48 45 23
0 0 0 0 0 0 0 0 0 0 0 0 1 1 1 5 2 2 5 2 2 3 5 2 186 39 3 2 53 40 17 23
0 0 0 0 0 0 0 0 0 0 0 0 0 2 0 0 0 4 4 4 1 1 2 4 3 126 20 8 4 27 27 17
0 0 0 0 0 0 0 0 0 0 0 0 0 0 2 1 1 10 6 6 1 1 2 3 3 4 141 24 15 30 49 39
2 1 0 0 0 0 0 0 2 1 0 0 0 0 1 1 1 5 6 2 3 1 1 2 2 2 4 34 4 10 11 10
4 5 0 0 0 0 0 1 3 4 3 1 0 0 0 0 1 2 6 2 5 3 2 2 2 2 4 0 1 11 0 0
9 4 1 1 0 0 0 0 2 3 4 4 1 0 0 1 2 0 5 6 3 1 2 2 2 2 1 0 0 0 4 2
11 5 1 1 0 0 2 0 0 0 3 6 2 0 0 0 2 3 2 3 3 2 2 2 2 3 0 0 0 0 0 23
6 2 3 0 0 0 0 0 0 0 1 6 4 1 0 0 0 2 4 4 3 1 1 2 3 2 2 1 0 0 0 12
CIN
0 0 0 0 0 0 0 0 -1 -1 0 0 0 0 -33 -93 -20 -12 -1 -2 -9 -70 0 0 -2 0 -25 -1 -12 -23 -44 -23
0 0 0 0 0 0 0 0 0 -1 0 0 0 0 0 0 -53 -10 -6 -1 -1 -18 0 0 -66 0 -16 -10 -2 -9 -21 -32
0 0 0 0 0 0 0 0 0 -1 -1 0 0 0 0 0 0 -1 -3 -2 -1 0 -20 -16 0 0 0 -52 -8 0 -9 -16
0 0 0 0 0 0 0 0 -1 -1 -1 0 0 0 0 0 0 -3 -1 0 0 0 -1 0 0 0 0 -5 -4 -4 0 0
0 0 0 0 0 0 0 0 0 -1 -1 0 0 0 0 0 0 0 -49 0 -11 0 -1 -58 0 0 0 0 -43 0 0 0
0 0 0 0 0 0 0 0 0 -1 -1 0 0 0 0 0 0 0 0 0 0 -1 -18 -29 0 -32 0 0 0 0 0 0
0 0 0 0 0 0 0 0 0 0 -1 -1 0 0 0 0 0 0 0 -49 0 -1 -10 -30 -60 0 -49 -5 0 0 0 0
0 0 0 0 0 0 0 0 0 0 -1 -1 0 0 0 0 0 0 0 0 -24 -2 -15 -29 -8 0 -9 -12 -2 -1 -2 0
0 0 0 0 0 0 0 0 0 0 -2 -1 0 0 0 0 0 0 0 0 0 0 -1 -30 -47 0 -14 -35 -1 -2 0 0
0 0 0 0 0 0 0 0 0 0 -1 -2 -2 0 0 0 0 0 0 0 0 0 0 -6 -89 0 -16 -30 -70 0 -7 -2
0 0 0 0 0 0 0 0 0 0 0 -1 -2 -1 0 0 0 0 0 0 0 0 0 -36 -13 -62 -15 -6 -1 -23 -2 -5
0 0 0 0 0 0 0 0 0 0 0 0 -2 -2 -1 0 0 0 0 0 0 0 0 0 -2 -9 0 0 -5 -8 -11 -1
0 0 0 0 0 0 0 0 0 0 0 0 0 -2 -1 0 -1 0 0 0 0 0 0 0 -2 -2 -14 -70 -5 -1 -4 -9
-4 0 0 0 0 0 0 0 -1 -1 0 0 0 -1 -1 0 -1 0 0 0 0 0 0 0 0 -2 -2 -27 -37 -1 -4 -5
-3 -4 -1 0 0 0 0 -1 -4 -2 -3 0 0 0 -2 -2 -1 0 0 0 0 0 0 0 0 0 -17 -39 -35 -27 -10 -14
-2 -3 -4 0 0 0 0 -4 -4 -2 -5 -4 0 0 -1 -2 -1 -1 0 0 0 0 0 0 0 0 0 0 0 0 0 0
-2 -3 -5 -3 0 0 -3 -1 -3 -3 -3 -5 -4 0 0 -2 -2 0 0 0 0 0 0 0 0 0 0 0 0 0 0 -36
-3 -4 -5 -4 -2 -3 -3 0 -4 0 -4 -4 -4 0 0 -3 -2 0 -1 0 0 0 0 0 0 0 0 0 0 0 0 -58
-4 -3 -4 -6 0 -4 -4 0 -3 -2 -3 -3 -3 -2 0 -1 -3 0 0 0 0 0 0 0 0 0 0 0 0 0 0 -36
Wind_Speed
35 35 34 33 32 32 33 33 33 34 33 33 32 31 28 31 26 23 23 17 16 13 14 10 12 12 12 25 24 20 17 17
35 35 34 33 32 32 32 33 34 33 33 34 34 34 36 35 33 25 23 22 19 18 18 16 15 17 15 18 28 24 20 20
35 35 34 34 33 33 33 32 33 33 33 33 33 37 35 37 36 28 28 28 24 19 19 19 17 14 14 18 22 27 27 22
35 35 34 34 34 33 33 33 33 33 34 33 34 33 33 32 31 35 32 30 27 23 21 18 18 14 17 19 23 21 26 27
33 33 34 34 33 33 33 33 33 33 33 33 34 34 36 37 38 38 39 31 29 28 26 20 19 15 15 18 21 19 21 26
32 32 32 32 32 32 32 33 33 33 33 32 33 34 35 37 38 38 36 33 30 30 26 24 19 24 14 16 17 23 25 30
31 31 31 32 32 32 32 33 32 33 33 33 33 34 36 36 36 38 36 34 32 31 31 26 21 25 17 20 17 16 23 28
31 31 31 32 33 33 33 33 33 33 34 33 34 34 34 35 35 36 37 36 33 32 31 29 28 22 22 22 20 14 17 23
31 31 32 33 33 33 33 34 34 33 33 34 34 34 34 34 35 35 37 37 36 34 32 31 30 25 21 20 18 16 19 17
31 31 33 34 33 33 34 34 34 33 33 33 33 34 34 35 35 35 36 37 37 38 36 32 30 28 22 20 20 20 15 16
32 32 33 34 34 34 34 33 33 33 33 33 33 33 34 34 34 35 36 36 37 38 38 36 29 31 29 32 25 20 21 19
34 33 33 34 34 34 34 34 34 33 33 33 33 33 33 33 33 35 36 36 37 37 37 36 34 34 32 31 28 23 23 24
35 35 35 35 34 34 34 33 33 33 33 32 32 32 32 32 33 34 35 36 35 36 37 37 37 35 33 30 31 35 27 29
35 35 35 36 35 34 33 33 32 32 33 32 32 32 32 32 33 34 34 35 35 35 36 38 39 38 35 36 36 32 33 29
35 34 34 35 35 34 33 33 32 32 31 31 31 31 31 32 32 33 34 34 34 33 36 38 38 36 35 33 34 36 34 31
35 34 34 34 35 34 33 32 32 32 31 30 30 30 30 30 31 32 32 32 33 33 34 34 36 36 32 35 37 39 37 41
35 33 33 33 33 33 32 31 31 31 30 30 30 30 29 29 29 31 30 30 30 30 31 33 33 29 33 36 39 43 43 43
34 33 33 34 33 32 31 30 29 29 29 29 28 29 29 28 28 29 29 28 27 27 28 29 29 29 33 35 38 41 43 39
31 33 34 35 33 31 29 29 27 28 27 27 27 28 28 28 27 28 28 27 26 25 26 27 28 29 33 35 36 35 37 38
Wind_Direction
304 305 305 304 304 301 300 300 299 298 295 291 286 283 283 276 282 284 279 277 274 262 263 245 226 199 226 233 235 235 231 236
302 304 304 305 304 302 301 299 299 298 294 290 284 278 276 273 275 280 277 275 274 269 262 245 247 243 228 229 238 235 235 236
300 301 304 304 304 303 300 300 298 297 296 291 286 280 275 274 273 274 274 272 270 274 264 255 254 224 215 232 240 241 243 230
299 300 301 304 304 304 301 299 297 297 296 293 289 285 279 275 275 273 272 268 270 268 268 253 248 216 236 229 248 226 242 230
303 301 301 302 305 304 303 301 298 296 298 293 291 283 277 272 272 274 274 266 266 268 268 262 252 233 230 218 236 242 238 229
303 305 303 303 307 306 305 303 299 296 295 295 291 286 281 278 272 274 276 268 265 266 264 264 251 258 228 229 229 242 253 236
310 307 305 305 308 308 306 304 302 298 294 293 291 288 284 280 275 270 273 276 265 264 265 265 259 261 245 249 248 231 248 238
315 315 308 305 305 305 307 305 302 301 296 291 290 290 286 282 279 274 271 270 274 264 263 262 264 264 256 260 258 248 234 234
319 319 318 311 306 305 305 303 302 302 299 293 289 289 286 283 282 277 271 269 269 275 263 261 264 262 257 257 252 244 250 217
319 318 321 319 313 306 305 303 302 303 300 296 292 288 286 284 283 278 276 272 270 271 275 260 261 262 262 252 249 244 216 217
317 319 320 321 319 312 306 304 300 302 301 298 295 291 287 285 284 281 276 276 271 269 269 266 261 262 262 262 250 241 243 238
314 315 316 316 319 317 310 305 301 299 300 299 295 294 290 286 284 283 278 278 275 271 269 272 261 263 262 263 267 232 244 245
315 315 318 315 314 315 314 309 303 299 300 300 298 295 293 289 285 284 282 278 277 272 269 270 271 260 260 264 265 264 253 255
312 312 315 316 314 311 312 312 307 302 298 299 299 297 295 291 290 285 283 280 277 276 272 269 268 270 263 262 264 269 265 260
309 305 309 312 313 311 310 312 311 305 300 297 297 299 297 294 293 290 286 282 279 279 275 271 269 271 273 264 261 264 272 272
309 302 304 307 310 310 311 310 310 307 300 298 298 301 300 298 296 294 289 286 281 279 279 276 272 271 275 271 265 264 270 272
308 302 302 305 305 305 306 303 305 306 301 298 299 300 302 302 299 297 293 291 287 283 281 279 275 275 278 274 270 265 266 268
309 305 303 307 305 301 303 298 297 303 302 300 299 300 300 303 303 301 298 293 293 287 285 283 280 281 284 280 273 266 264 269
303 308 304 306 307 303 300 300 297 301 301 302 302 301 300 301 305 304 301 297 294 293 290 288 285 285 289 284 281 275 270 269